Starlink 31991

operational
NORAD ID: 59963 Int'l Des: 2024-107 Owner: SPXS Country: US Constellation: starlink
LEOCIRCULAR

About Starlink 31991

Description loading...

Live Position

Loading 3D Globe...

Upcoming Passes

Altitude History

Altitude vs Time

uPlot chart will show altitude changes over time

Two-Line Element Set

1 59963U 24107U 26094.01184177 -.00001131 00000-0 -26080-4 0 9994
2 59963 53.1583 307.8924 0001115 76.9254 283.1871 15.30187145103675
Epoch: Apr 4, 2026 • Age: 12 hours

Current Status

Altitude 494.5 km
Velocity 7.62 km/s
Sub-Earth Point -53.31°S, 164.1°W
Launch Date Jun 5, 2024
Age 1.8 years
Type internet

Technical Details

Classification Payload
Mass 730.00 kg
Dry Mass 700.00 kg
Total Mass 730.00 kg
Length 0.30 m
Diameter 4.10 m
Span 29.00 m
Shape Box + pan
Manufacturer SPXS
Bus Type Starlink V2M
Phase Status In Orbit
Owner/State SPXS/US

Large Constellations

Loading constellations...